Location: Albany
(35.0170°S, 117.8920°E)
Time: 23:12:45
(UTC+08:00)

Transit 2A Rocket - All Passes

Search period start: 23 January 2021 00:00
Search period end: 02 February 2021 00:00
Orbit: 592 x 910 km, 66.7° (Epoch: 22 January)

Date Brightness Start Highest point End Pass type
(mag) Time Alt. Az. Time Alt. Az. Time Alt. Az.
23 Jan - 00:28:02 10° NNW 00:32:46 76° WSW 00:38:03 10° SSE visible
23 Jan - 02:15:45 10° SW 02:16:26 10° SW 02:17:08 10° SW visible
23 Jan - 09:14:12 10° SSW 09:20:02 45° ESE 09:25:51 10° NE daylight
23 Jan - 10:57:25 10° SW 11:02:23 27° WNW 11:07:20 10° NNW daylight
23 Jan - 23:45:37 10° N 23:50:13 57° ENE 23:55:22 10° SE visible
24 Jan - 01:30:02 10° W 01:33:19 17° SW 01:36:48 10° S visible
24 Jan - 08:32:02 10° S 08:37:12 28° SE 08:42:22 10° ENE daylight
24 Jan - 10:14:12 10° SW 10:20:00 46° WNW 10:25:45 10° N daylight
24 Jan - 23:03:45 10° NNE 23:07:51 30° ENE 23:12:18 10° SE visible
25 Jan - 00:46:08 10° WNW 00:50:21 29° SW 00:54:57 10° S visible
25 Jan - 07:50:13 10° S 07:54:13 18° SE 07:58:15 10° E daylight
25 Jan - 09:31:22 10° SSW 09:37:30 79° WNW 09:43:34 10° NNE daylight
25 Jan - 22:22:49 10° NE 22:25:36 15° ENE 22:28:31 10° ESE visible
26 Jan - 00:02:52 10° NW 00:07:32 50° WSW 00:12:44 10° SSE visible
26 Jan - 07:09:27 10° SSE 07:11:05 11° SE 07:12:45 10° ESE daylight
26 Jan - 08:48:49 10° SSW 08:54:53 63° ESE 09:00:54 10° NE daylight
26 Jan - 10:32:56 10° WSW 10:36:58 18° WNW 10:40:58 10° NW daylight
26 Jan - 23:20:08 10° NNW 23:24:54 87° ENE 23:30:13 10° SSE visible
27 Jan - 01:06:10 10° WSW 01:08:22 13° SW 01:10:39 10° SSW visible
27 Jan - 08:06:29 10° S 08:12:08 38° ESE 08:17:46 10° NE daylight
27 Jan - 09:49:18 10° SW 09:54:39 32° WNW 09:59:56 10° N daylight
27 Jan - 22:37:53 10° N 22:42:25 45° ENE 22:47:25 10° SE visible
28 Jan - 00:21:34 10° W 00:25:18 21° SW 00:29:19 10° S visible
28 Jan - 07:24:24 10° S 07:29:14 24° SE 07:34:05 10° ENE daylight
28 Jan - 09:06:14 10° SW 09:12:14 56° WNW 09:18:06 10° N daylight
28 Jan - 21:56:17 10° NNE 22:00:05 24° ENE 22:04:11 10° SE visible
28 Jan - 23:37:55 10° WNW 23:42:23 35° SW 23:47:18 10° S visible
29 Jan - 06:42:47 10° SSE 06:46:13 15° SE 06:49:39 10° E daylight
29 Jan - 08:23:31 10° SSW 08:29:40 87° ESE 08:35:45 10° NNE daylight
29 Jan - 10:09:12 10° W 10:11:30 12° WNW 10:13:45 10° WNW daylight
29 Jan - 21:15:58 10° NE 21:17:53 12° ENE 21:19:50 10° ESE visible
29 Jan - 22:54:51 10° NW 22:59:38 63° WSW 23:04:58 10° SSE visible
30 Jan - 07:41:02 10° SSW 07:47:01 52° ESE 07:52:56 10° NE daylight
30 Jan - 09:24:38 10° WSW 09:29:14 23° WNW 09:33:47 10° NNW daylight
30 Jan - 22:12:17 10° NNW 22:17:03 70° ENE 22:22:22 10° SSE visible
30 Jan - 23:57:21 10° W 00:00:19 15° SW 00:03:26 10° S visible
31 Jan - 06:58:47 10° S 07:04:12 32° SE 07:09:37 10° ENE daylight
31 Jan - 08:41:16 10° SW 08:46:53 39° WNW 08:52:26 10° N daylight
31 Jan - 21:30:15 10° N 21:34:38 36° ENE 21:39:26 10° SE visible
31 Jan - 23:13:12 10° WNW 23:17:18 25° SW 23:21:45 10° S visible
01 Feb - 06:16:49 10° S 06:21:16 20° SE 06:25:43 10° E daylight
01 Feb - 07:58:20 10° SSW 08:04:26 68° WNW 08:10:24 10° NNE daylight
01 Feb - 20:48:56 10° NNE 20:52:20 19° ENE 20:55:58 10° ESE visible
01 Feb - 22:29:47 10° NW 22:34:27 43° WSW 22:39:36 10° SSE visible
